Vorticity
5 5 5 5 4 4 3 4 5 5 5 6 4 5 6 4 4 5 5 5 5 6 7 8 6 5 8 9 9 7 6 6 7 9 7 8 12 5 3 5 5 9 10 6 5 3 2
4 4 5 4 5 5 5 5 5 5 5 8 12 8 7 5 6 7 7 6 6 6 4 5 5 7 8 6 6 8 7 6 5 6 7 8 7 7 8 7 8 6 5 6 8 10 9
5 5 6 6 6 6 5 5 5 5 8 10 4 5 6 5 5 6 4 4 4 5 5 4 5 6 6 3 8 7 7 10 8 6 5 5 6 7 6 6 6 6 6 7 7 6 5
4 4 4 4 5 5 6 6 5 5 4 7 2 6 4 6 5 4 3 3 4 4 3 4 3 1 8 8 7 8 7 6 6 10 7 5 5 4 4 5 6 6 7 6 6 6 7
3 2 2 2 3 3 4 6 7 6 4 5 4 3 6 5 4 2 2 4 4 4 4 2 -3 3 5 8 9 10 10 7 5 6 6 11 7 5 4 3 3 3 3 5 7 7 8
4 4 3 3 3 3 4 4 5 6 6 6 7 7 3 4 6 5 4 2 0 2 1 0 9 13 0 8 10 14 11 7 7 7 7 8 12 10 6 5 6 5 5 4 4 4 6
4 4 4 4 3 4 4 4 5 5 4 5 9 7 4 2 3 4 5 5 10 8 7 3 -2 7 5 3 11 13 15 13 11 10 9 7 7 7 7 7 6 6 5 4 6 6 7
2 2 3 4 4 4 4 5 5 6 5 5 5 6 4 2 2 2 4 4 8 3 6 4 3 2 5 8 2 5 13 14 15 12 10 8 8 7 8 8 8 9 8 7 7 6 7
-2 5 -0 3 3 4 4 4 4 5 6 6 6 5 3 3 3 3 4 5 5 4 8 9 5 7 11 6 2 3 1 10 10 10 10 9 9 9 9 8 8 8 8 8 8 7 8
9 16 14 4 3 3 4 4 4 3 4 5 5 6 5 3 2 4 4 4 3 3 5 6 8 11 7 2 3 4 8 6 7 9 8 9 8 9 9 8 8 7 7 7 6 6 6
11 -3 17 9 16 4 2 5 4 4 4 4 4 3 4 13 12 8 5 5 5 5 7 10 7 0 6 5 7 7 8 7 6 8 9 6 8 9 9 8 8 7 7 7 7 7 8
-3 10 10 3 3 13 1 7 6 5 -2 3 3 3 -1 3 7 6 9 11 11 11 7 2 5 4 8 5 4 6 10 7 8 6 9 10 11 11 10 11 12 12 11 9 8 8 9
11 -1 6 10 -2 -1 10 7 10 3 11 12 4 4 2 1 1 3 6 6 9 9 8 4 5 7 8 2 7 8 9 7 8 9 9 8 9 12 11 7 5 6 8 9 11 9 6
6 18 20 14 2 6 12 3 13 3 5 3 15 9 8 2 5 3 7 5 10 10 6 5 5 5 2 3 6 6 9 7 12 11 9 9 10 5 5 8 11 11 8 6 7 6 6
8 34 14 1 13 -9 13 9 8 1 8 1 -0 6 5 1 5 3 7 9 4 9 9 10 5 4 4 2 5 8 11 8 7 7 9 10 10 12 12 10 6 7 8 8 11 12 13
2 1 -11 -21 7 -6 7 3 15 14 11 5 -1 7 4 8 3 5 11 11 6 6 6 4 5 7 7 6 9 12 9 7 8 10 12 11 11 9 9 9 7 10 9 11 12 8 7
11 14 9 10 6 0 -0 9 7 5 4 -2 -0 -2 7 10 7 11 9 7 3 5 2 8 10 6 7 6 8 8 4 4 11 12 9 8 8 6 8 11 11 11 8 7 9 6 4
51 39 4 12 13 22 7 12 11 3 5 15 -7 5 10 7 8 14 8 6 5 2 8 8 10 9 10 13 11 10 13 15 14 9 6 6 7 11 11 10 9 8 6 9 4 3 8
-6 4 53 55 -6 9 12 6 1 -8 4 10 9 6 5 9 2 11 0 5 5 3 7 8 8 12 10 6 14 14 9 7 7 5 7 7 8 8 8 10 7 4 6 6 4 2 3
2 -9 -4 12 46 35 4 6 17 17 9 0 12 12 11 13 8 2 8 6 5 7 9 9 11 9 3 17 9 8 8 8 8 7 9 9 8 8 10 7 4 6 5 6 2 4 4
5 0 -7 4 11 28 42 8 -1 6 3 16 13 3 11 6 10 11 6 13 3 17 10 1 8 7 11 12 4 7 6 8 8 8 8 6 8 8 5 5 5 5 5 5 6 4 4
1 2 -3 -5 5 22 39 11 8 -0 7 15 5 7 9 15 15 3 -0 -2 -6 -1 9 15 18 15 12 10 7 10 7 10 8 7 6 7 6 6 8 8 5 3 5 2 2 6 11
1 4 2 1 -6 -8 52 4 12 1 7 1 7 16 7 14 17 6 -0 4 9 11 10 4 6 6 10 13 5 7 9 9 8 6 8 5 9 8 5 6 4 4 -4 5 7 5 5
3 3 1 -1 9 5 17 12 14 17 15 4 22 11 17 14 -1 10 9 10 10 8 18 28 25 8 9 6 7 11 9 6 7 8 7 7 6 4 4 7 4 5 6 6 3 1 7
5 5 3 2 7 4 17 29 21 5 11 7 -1 13 7 16 18 18 13 18 18 16 5 5 6 3 5 11 11 7 6 6 7 6 6 8 5 11 7 5 8 -1 6 9 8 5 6
9 4 9 12 10 8 5 35 25 9 6 16 13 -11 2 3 22 2 16 11 6 8 8 4 7 8 9 7 5 6 5 6 3 3 5 3 3 2 7 4 8 8 9 8 5 11 11
9 5 8 3 2 8 12 13 12 26 6 10 -3 9 15 22 -6 14 19 10 8 2 3 7 9 9 7 7 6 5 4 4 3 2 4 4 5 7 10 7 9 11 9 13 10 11 12
8 8 1 5 18 7 15 19 20 13 -5 23 20 12 17 39 21 6 4 4 4 6 7 10 9 10 6 6 5 4 4 5 6 3 7 5 9 12 11 10 13 12 6 9 15 15 10
6 6 7 16 8 14 16 25 32 39 44 35 9 8 12 5 1 5 6 6 8 8 10 9 6 4 5 8 6 5 5 8 3 5 10 14 11 10 9 4 8 12 16 12 9 5 7
Height
5821 5822 5824 5826 5827 5828 5829 5831 5832 5832 5832 5833 5833 5832 5832 5831 5831 5831 5830 5829 5829 5828 5827 5826 5825 5824 5823 5822 5821 5820 5819 5818 5817 5817 5816 5816 5816 5817 5817 5816 5817 5817 5816 5816 5817 5818 5819
5816 5818 5820 5821 5823 5825 5826 5827 5828 5829 5830 5830 5831 5830 5830 5830 5830 5829 5829 5828 5827 5826 5826 5825 5824 5823 5822 5821 5819 5818 5817 5816 5816 5815 5815 5814 5814 5814 5814 5814 5815 5815 5814 5814 5814 5814 5815
5811 5813 5815 5817 5819 5820 5822 5823 5825 5825 5827 5827 5827 5827 5827 5827 5828 5827 5827 5827 5826 5825 5824 5824 5823 5822 5821 5820 5817 5816 5815 5814 5813 5813 5812 5812 5812 5812 5811 5812 5812 5812 5812 5812 5812 5812 5813
5805 5808 5810 5812 5814 5816 5818 5819 5821 5822 5823 5824 5824 5824 5824 5824 5824 5824 5824 5825 5824 5823 5823 5822 5821 5820 5818 5817 5815 5814 5812 5811 5811 5810 5809 5809 5809 5809 5808 5808 5808 5808 5809 5808 5808 5808 5809
5799 5802 5805 5807 5809 5811 5813 5815 5816 5818 5819 5820 5821 5821 5821 5821 5821 5821 5821 5821 5822 5821 5820 5819 5819 5817 5816 5814 5812 5810 5809 5808 5807 5807 5806 5805 5805 5805 5804 5804 5804 5804 5804 5803 5803 5803 5804
5792 5795 5798 5801 5803 5805 5808 5810 5812 5813 5814 5815 5816 5817 5818 5818 5818 5818 5818 5818 5818 5817 5816 5815 5815 5815 5812 5811 5808 5806 5805 5804 5803 5802 5802 5801 5801 5800 5800 5799 5799 5798 5798 5798 5796 5798 5797
5783 5787 5791 5794 5797 5799 5802 5804 5806 5808 5809 5811 5812 5813 5814 5814 5814 5815 5815 5814 5815 5814 5812 5812 5811 5809 5808 5807 5804 5802 5800 5799 5798 5798 5797 5796 5796 5795 5794 5793 5793 5792 5791 5791 5790 5790 5791
5774 5778 5782 5786 5789 5792 5795 5798 5800 5802 5803 5805 5807 5808 5808 5809 5810 5810 5810 5810 5810 5810 5809 5807 5806 5805 5803 5802 5800 5798 5797 5795 5793 5792 5792 5792 5791 5790 5789 5788 5787 5786 5785 5784 5783 5782 5783
5764 5768 5773 5777 5781 5784 5787 5790 5792 5795 5797 5799 5801 5802 5803 5804 5804 5805 5805 5805 5804 5804 5804 5803 5801 5800 5799 5797 5796 5794 5792 5790 5788 5787 5786 5785 5785 5783 5782 5781 5780 5779 5778 5776 5776 5774 5773
5752 5757 5762 5767 5771 5775 5779 5782 5785 5787 5789 5791 5793 5795 5797 5798 5800 5799 5799 5799 5798 5798 5798 5798 5796 5795 5794 5792 5791 5789 5787 5786 5783 5782 5781 5780 5779 5777 5775 5774 5773 5772 5771 5769 5767 5766 5764
5741 5746 5750 5756 5761 5765 5769 5773 5777 5780 5782 5784 5786 5788 5789 5790 5791 5792 5793 5793 5792 5792 5790 5791 5790 5789 5787 5787 5785 5783 5781 5779 5778 5776 5776 5775 5773 5771 5769 5768 5766 5765 5763 5761 5759 5757 5755
5728 5735 5740 5745 5750 5755 5759 5764 5767 5771 5773 5776 5778 5780 5781 5783 5784 5784 5784 5785 5785 5786 5783 5784 5783 5782 5781 5780 5778 5776 5774 5773 5771 5770 5768 5767 5765 5764 5762 5760 5759 5757 5755 5753 5751 5748 5747
5718 5724 5729 5735 5740 5745 5750 5754 5757 5761 5764 5767 5769 5771 5773 5774 5776 5776 5777 5778 5778 5777 5778 5777 5776 5774 5774 5773 5772 5770 5769 5766 5765 5763 5761 5760 5758 5756 5755 5753 5751 5749 5747 5744 5742 5740 5738
5708 5713 5718 5724 5729 5734 5739 5743 5747 5751 5754 5758 5760 5762 5764 5766 5767 5768 5768 5770 5770 5769 5770 5769 5768 5767 5766 5765 5764 5762 5761 5760 5758 5756 5754 5753 5752 5750 5748 5746 5744 5742 5740 5738 5732 5731 5730
5695 5702 5708 5714 5719 5723 5728 5732 5736 5741 5744 5748 5751 5752 5755 5757 5758 5759 5760 5759 5761 5762 5762 5761 5760 5759 5759 5758 5757 5755 5753 5752 5750 5749 5748 5745 5744 5743 5741 5738 5737 5735 5732 5730 5726 5724 5721
5683 5689 5695 5702 5707 5713 5718 5722 5727 5730 5734 5737 5741 5743 5744 5747 5747 5749 5749 5751 5751 5752 5753 5753 5752 5751 5751 5750 5749 5747 5745 5744 5742 5741 5739 5737 5735 5734 5732 5730 5728 5725 5723 5721 5718 5714 5711
5669 5677 5682 5689 5696 5701 5706 5711 5716 5720 5724 5728 5730 5732 5734 5736 5737 5738 5740 5742 5742 5742 5743 5744 5743 5742 5742 5741 5740 5739 5737 5736 5734 5732 5730 5728 5728 5727 5725 5722 5720 5717 5714 5712 5710 5706 5702
5656 5665 5671 5678 5684 5690 5695 5699 5704 5710 5713 5717 5719 5719 5723 5724 5726 5728 5730 5732 5733 5732 5733 5734 5733 5732 5732 5732 5731 5730 5729 5727 5726 5725 5723 5721 5719 5718 5716 5713 5710 5708 5706 5704 5701 5698 5694
5649 5655 5659 5667 5674 5680 5684 5687 5693 5699 5703 5706 5707 5708 5710 5713 5713 5718 5720 5721 5721 5723 5723 5724 5723 5723 5723 5723 5723 5721 5720 5719 5718 5716 5714 5713 5711 5708 5706 5705 5701 5698 5695 5693 5689 5686 5685
5641 5646 5652 5657 5662 5668 5672 5676 5683 5688 5692 5694 5695 5696 5699 5701 5703 5707 5709 5710 5712 5713 5713 5714 5714 5714 5714 5714 5714 5713 5713 5711 5709 5708 5706 5703 5702 5700 5697 5694 5691 5687 5685 5682 5677 5673 5669
5633 5639 5644 5649 5653 5656 5659 5665 5671 5678 5681 5681 5682 5685 5690 5692 5695 5697 5697 5700 5701 5702 5702 5703 5705 5705 5705 5705 5705 5705 5704 5703 5700 5699 5697 5695 5694 5691 5687 5684 5681 5677 5674 5670 5665 5662 5653
5623 5630 5635 5640 5644 5645 5648 5655 5661 5667 5668 5669 5671 5676 5681 5685 5686 5687 5687 5690 5690 5691 5693 5694 5696 5696 5697 5696 5696 5696 5695 5692 5691 5690 5687 5686 5684 5680 5678 5676 5671 5665 5663 5658 5655 5649 5640
5613 5619 5624 5630 5634 5637 5639 5644 5651 5654 5658 5657 5660 5666 5670 5673 5674 5674 5678 5678 5680 5682 5684 5685 5686 5687 5687 5688 5688 5687 5686 5684 5682 5681 5678 5676 5674 5669 5666 5664 5659 5657 5651 5646 5641 5633 5624
5602 5608 5614 5620 5624 5628 5629 5633 5640 5643 5645 5649 5654 5655 5658 5661 5663 5665 5666 5669 5671 5673 5675 5676 5678 5678 5678 5678 5678 5678 5677 5676 5672 5671 5668 5665 5662 5657 5654 5651 5646 5641 5637 5633 5625 5620 5609
5591 5598 5604 5609 5614 5619 5619 5623 5629 5631 5635 5639 5640 5644 5648 5651 5654 5656 5657 5659 5661 5664 5667 5669 5669 5669 5669 5669 5670 5668 5668 5666 5663 5660 5657 5653 5648 5643 5641 5637 5633 5632 5623 5616 5607 5609 5594
5580 5588 5594 5599 5605 5608 5610 5614 5619 5621 5624 5629 5630 5632 5638 5643 5646 5647 5648 5650 5652 5656 5659 5660 5660 5661 5661 5659 5660 5659 5657 5655 5652 5649 5646 5642 5637 5633 5628 5621 5617 5617 5608 5598 5589 5587 5579
5569 5577 5584 5589 5594 5597 5600 5604 5609 5611 5614 5617 5620 5623 5627 5632 5635 5636 5640 5643 5646 5648 5651 5652 5651 5651 5651 5650 5650 5649 5647 5644 5641 5638 5634 5628 5623 5619 5611 5604 5604 5596 5588 5580 5573 5567 5560
5558 5567 5573 5580 5584 5588 5591 5594 5598 5602 5605 5608 5611 5614 5619 5622 5628 5630 5633 5638 5639 5642 5643 5644 5642 5642 5641 5640 5638 5637 5635 5634 5631 5627 5621 5616 5608 5604 5597 5590 5583 5580 5571 5563 5556 5548 5541
5547 5556 5564 5571 5575 5578 5581 5583 5587 5590 5595 5598 5604 5608 5613 5618 5623 5626 5629 5631 5633 5634 5634 5633 5633 5632 5631 5628 5627 5625 5623 5621 5619 5614 5607 5602 5597 5592 5586 5576 5567 5560 5554 5548 5540 5532 5523